User: anonymous   Login
Location: NJAA Observatory
(40.6819°N, 74.8979°W)
Time: 20:44:48
(UTC-05:00)
Language:

S-56A Canister/Altair - Orbit

View from above orbital plane
View from above orbital plane
View from above satellite
View from above satellite

Ground track
Ground track

The orbit data is extracted from the following two-line orbital elements,

1    82U 61004B   17051.91520662 +.00000104 +00000-0 +13097-3 0  9994
2    82 038.8575 007.3589 1168198 352.5410 005.9170 12.25813649658994
Epoch (UTC): 20 February 2017 21:57:53
Eccentricity: 0.1168198
inclination: 38.8575°
perigee height: 639 km
apogee height: 2495 km
right ascension of ascending node: 7.3589°
argument of perigee: 352.5410°
revolutions per day: 12.25813649
mean anomaly at epoch: 5.9170°
orbit number at epoch: 65899

The dashed part of the orbit path shows where the satellite is in the earth's shadow,  

DLR